Date,TemperatureHighF,TemperatureAvgF,TemperatureLowF,DewpointHighF,DewpointAvgF,DewpointLowF,HumidityHigh,HumidityAvg,HumidityLow,PressureMaxIn,PressureMinIn,WindSpeedMaxMPH,WindSpeedAvgMPH,GustSpeedMaxMPH,PrecipitationSumIn
2013-1-1,30,17,7,15,8,2,83,70,48,30.60,30.44,8,0,10,0.01
2013-1-2,36,21,9,14,8,2,73,58,36,30.67,30.51,9,0,13,0.00
2013-1-3,38,19,5,10,4,-3,74,55,24,30.69,30.55,6,0,11,0.00
2013-1-4,46,23,10,17,9,3,76,59,23,30.60,30.36,3,0,4,0.01
2013-1-5,41,23,11,16,10,4,74,59,34,30.62,30.39,13,1,19,0.00
2013-1-6,43,23,7,17,9,0,76,60,30,30.62,30.26,5,0,7,0.00
2013-1-7,52,35,23,24,15,10,68,48,19,30.28,30.00,8,1,13,0.00
2013-1-8,52,37,25,22,18,15,68,48,28,30.41,29.98,26,4,31,0.00
2013-1-9,54,33,19,22,17,12,75,54,25,30.51,30.22,10,0,13,0.00
2013-1-10,38,27,16,22,16,9,77,64,48,30.22,29.70,16,0,22,0.00
2013-1-11,42,24,8,24,13,2,79,65,20,30.12,29.52,30,5,36,0.00
2013-1-12,17,9,3,7,2,-2,87,73,62,30.52,30.13,11,2,14,0.00
2013-1-13,16,8,-1,6,0,-6,83,69,53,30.64,30.50,7,1,11,0.00
2013-1-14,16,6,-1,5,-2,-7,77,69,51,30.69,30.56,8,1,9,0.00
2013-1-15,31,16,-5,14,3,-11,77,58,38,30.67,30.55,9,0,14,0.00
2013-1-16,54,35,20,25,18,11,69,52,28,30.58,30.41,6,1,11,0.00
2013-1-17,49,30,15,22,16,9,82,59,30,30.70,30.49,7,0,10,0.00
2013-1-18,62,35,17,20,10,6,72,41,13,30.48,30.25,21,2,29,0.00
2013-1-19,59,41,23,15,10,5,55,29,14,30.38,30.25,13,2,17,0.00
2013-1-20,48,31,17,16,12,6,65,46,24,30.50,30.28,10,1,17,0.00
2013-1-21,53,31,11,19,11,4,80,48,21,30.50,30.29,6,0,11,0.00
2013-1-22,59,41,22,18,11,0,60,32,13,30.29,30.17,19,2,23,0.00
2013-1-23,64,47,25,15,9,1,52,24,10,30.32,30.21,27,8,34,0.00
2013-1-24,62,39,21,20,13,9,67,39,13,30.27,30.07,8,1,13,0.00
2013-1-25,52,38,28,28,23,17,71,57,39,30.32,30.19,7,1,12,0.00
2013-1-26,52,38,25,31,25,18,79,61,39,30.24,29.90,9,0,13,0.00
2013-1-27,58,40,29,36,28,19,85,64,33,29.90,29.79,12,1,18,0.00
2013-1-28,50,32,23,30,23,15,83,69,43,29.95,29.70,18,2,19,0.00
2013-1-29,32,25,16,22,15,5,85,67,42,30.25,29.91,28,4,31,0.06
2013-1-30,36,23,6,17,10,1,80,59,42,30.26,30.15,13,1,19,0.00
2013-1-31,49,32,21,24,19,13,79,60,30,30.37,30.18,13,1,17,0.00
2013-2-1,56,33,18,25,18,13,86,58,25,30.41,30.25,29,4,37,0.00
2013-2-2,56,36,18,23,18,11,80,51,20,30.50,30.38,9,1,13,0.00
2013-2-3,46,32,20,20,15,9,72,51,30,30.46,30.08,5,0,11,0.00
2013-2-4,58,36,21,16,12,8,62,40,17,30.21,30.02,11,1,22,0.00
2013-2-5,57,41,21,22,16,10,69,40,23,30.24,29.97,13,1,14,0.00
2013-2-6,54,40,27,30,23,16,80,53,28,30.22,29.91,14,1,17,0.00
2013-2-7,48,33,18,30,17,9,85,55,25,30.34,30.22,11,1,15,0.00
2013-2-8,53,31,15,17,10,5,70,46,17,30.25,29.93,9,1,13,0.00
2013-2-9,41,28,16,26,17,6,82,64,42,29.95,29.76,10,1,14,0.00
2013-2-10,38,28,18,19,12,6,82,52,27,30.33,29.84,20,5,27,0.00
2013-2-11,29,21,13,17,12,8,81,69,51,30.38,30.28,7,1,13,0.01
2013-2-12,46,24,6,15,4,-2,82,49,14,30.43,30.33,9,1,14,0.00
2013-2-13,53,30,13,17,10,3,71,46,20,30.36,30.16,26,2,34,0.00
2013-2-14,34,25,19,22,17,11,81,71,48,30.59,30.25,25,2,31,0.02
2013-2-15,46,27,13,20,13,6,82,60,20,30.65,30.50,21,2,33,0.01
2013-2-16,61,36,15,21,13,7,79,46,16,30.51,30.15,22,2,30,0.00
2013-2-17,67,46,29,17,8,2,45,25,8,30.15,29.64,37,9,42,0.00
2013-2-18,45,31,17,19,10,2,76,46,17,30.34,29.83,17,2,27,0.00
2013-2-19,41,27,15,15,10,4,70,50,30,30.34,30.07,12,2,15,0.00
2013-2-20,38,25,19,24,15,10,83,67,42,30.08,29.88,11,3,14,0.00
2013-2-21,31,20,14,20,14,9,83,76,59,30.24,30.01,6,1,10,0.23
2013-2-22,36,22,9,20,13,4,84,70,50,30.33,30.17,9,1,12,0.01
2013-2-23,40,26,10,25,14,5,83,64,41,30.17,29.92,11,1,19,0.00
2013-2-24,29,26,19,27,22,15,92,86,83,30.39,29.99,25,5,29,0.07
2013-2-25,36,22,6,22,13,2,87,72,52,30.41,30.17,6,0,7,0.05
2013-2-26,38,26,12,26,17,7,85,70,47,30.44,30.14,25,5,27,0.03
2013-2-27,37,25,11,15,10,3,77,55,31,30.54,30.44,11,1,14,0.00
2013-2-28,41,27,10,20,11,3,78,54,28,30.59,30.48,8,0,14,0.00
2013-3-1,44,33,20,26,19,12,74,58,40,30.57,30.47,8,0,12,0.00
2013-3-2,57,39,23,34,25,17,79,61,34,30.54,30.18,7,1,11,0.00
2013-3-3,63,48,35,29,26,21,77,46,21,30.18,29.72,26,4,38,0.00
2013-3-4,47,30,15,27,21,9,82,69,44,30.47,29.72,11,2,19,0.08
2013-3-5,41,24,10,22,14,4,83,66,41,30.63,30.46,11,1,12,0.00
2013-3-6,57,36,20,34,24,15,82,63,36,30.46,30.04,9,0,10,0.00
2013-3-7,64,45,29,33,27,22,79,53,20,30.13,29.99,12,1,14,0.00
2013-3-8,49,37,29,33,28,23,83,70,53,30.06,29.84,9,1,13,0.00
2013-3-9,36,32,26,30,26,14,88,80,56,30.32,29.79,17,3,26,0.19
2013-3-10,46,32,16,24,18,9,80,56,35,30.41,30.23,12,2,19,0.00
2013-3-11,62,40,27,30,24,18,87,58,23,30.29,30.02,21,3,33,0.00
2013-3-12,37,30,25,28,24,20,92,78,64,30.51,30.29,10,1,13,0.19
2013-3-13,64,42,25,36,29,21,86,63,28,30.53,30.35,9,1,12,0.00
2013-3-14,75,53,36,36,29,23,71,45,15,30.39,30.13,11,1,18,0.00
2013-3-15,80,61,43,34,28,23,62,30,13,30.12,29.78,23,5,39,0.00
2013-3-16,56,46,34,34,30,27,77,54,34,29.97,29.82,11,2,18,0.00
2013-3-17,61,42,30,33,24,8,79,54,21,29.96,29.63,37,7,40,0.00
2013-3-18,55,40,26,18,11,2,52,31,18,30.06,29.96,34,8,46,0.00
2013-3-19,58,42,25,17,7,-6,64,27,8,30.50,30.06,22,5,26,0.00
2013-3-20,50,33,18,22,18,12,82,56,32,30.49,29.94,6,0,15,0.00
2013-3-21,56,41,31,37,21,4,71,48,23,29.95,29.66,24,3,33,0.01
2013-3-22,44,31,22,27,18,10,92,61,34,30.16,29.86,17,2,22,0.00
2013-3-23,26,19,9,23,15,4,92,83,79,30.54,30.15,22,3,26,0.05
2013-3-24,33,18,3,17,9,-2,83,70,49,30.61,30.51,11,1,18,0.26
2013-3-25,35,25,17,17,13,10,81,62,38,30.62,30.50,9,1,15,0.00
2013-3-26,43,30,16,26,18,8,79,61,41,30.51,30.19,10,1,13,0.00
2013-3-27,54,40,28,35,29,23,85,66,39,30.29,30.18,10,1,16,0.00
2013-3-28,64,45,29,36,30,25,88,62,28,30.24,30.15,12,1,24,0.00
2013-3-29,70,50,35,37,31,28,78,53,25,30.21,30.06,20,3,27,0.00
2013-3-30,70,48,34,37,31,26,82,56,23,30.29,30.04,28,3,36,0.00
2013-3-31,70,48,29,36,29,24,89,54,22,30.28,30.00,12,1,14,0.00
2013-4-1,55,41,28,33,28,22,77,60,42,30.24,30.09,9,1,13,0.00
2013-4-2,40,38,36,35,32,29,88,79,68,30.30,30.19,9,2,13,0.27
2013-4-3,63,46,36,40,34,27,89,67,32,30.30,30.14,13,1,21,0.00
2013-4-4,70,53,34,38,32,28,85,49,23,30.22,29.99,10,1,18,0.00
2013-4-5,77,57,45,38,32,27,65,42,18,29.99,29.64,31,6,46,0.00
2013-4-6,68,52,36,35,28,22,65,41,21,29.92,29.79,18,2,20,0.00
2013-4-7,67,53,37,37,31,22,82,46,20,29.87,29.67,23,3,33,0.00
2013-4-8,65,45,27,36,30,22,82,60,31,29.89,29.41,45,6,48,0.00
2013-4-9,27,20,13,22,12,6,82,73,63,30.56,29.90,16,7,24,0.01
2013-4-10,28,19,8,18,11,3,80,70,54,30.56,30.26,11,2,13,0.10
2013-4-11,57,35,18,35,24,12,80,66,35,30.26,30.01,17,1,21,0.01
2013-4-12,57,43,35,33,30,28,77,61,38,30.10,29.97,19,2,29,0.00
2013-4-13,68,49,30,38,30,25,87,54,22,30.06,29.44,25,4,38,0.02
2013-4-14,52,43,35,38,19,7,82,40,17,29.83,29.55,40,13,44,0.13
2013-4-15,39,28,23,26,21,16,85,78,40,30.30,29.82,10,1,19,0.09
2013-4-16,32,27,23,27,23,19,92,84,80,30.30,30.15,13,2,19,0.07
2013-4-17,30,26,19,26,22,13,89,84,74,30.45,30.19,12,1,14,0.07
2013-4-18,38,24,10,19,13,5,92,65,42,30.48,30.41,10,1,12,0.44
2013-4-19,55,37,18,32,21,10,77,54,27,30.45,30.13,13,1,14,0.00
2013-4-20,56,45,32,35,30,24,78,57,38,30.13,30.00,10,1,15,0.00
2013-4-21,66,48,31,36,30,24,85,54,22,30.15,30.02,12,1,22,0.00
2013-4-22,49,34,23,38,26,19,92,75,46,30.52,29.93,23,4,31,0.06
2013-4-23,35,26,19,22,18,15,86,71,49,30.58,30.45,9,1,13,0.46
2013-4-24,56,38,21,31,21,14,79,55,24,30.46,30.34,9,1,14,0.00
2013-4-25,63,45,28,33,25,19,73,49,24,30.34,30.01,14,1,14,0.00
2013-4-26,70,55,36,32,25,18,64,35,16,30.23,30.09,13,2,16,0.00
2013-4-27,76,57,34,37,27,22,70,36,14,30.22,30.00,10,1,14,0.00
2013-4-28,82,63,42,41,32,22,66,34,16,30.01,29.74,20,2,30,0.00
2013-4-29,81,66,46,40,34,25,68,34,15,29.84,29.45,34,5,38,0.00
2013-4-30,68,51,34,40,34,27,86,55,22,30.06,29.47,26,3,29,0.26
2013-5-1,34,30,22,30,26,19,89,86,82,30.90,30.05,11,1,19,0.41
2013-5-2,46,33,19,28,22,16,87,65,34,31.02,30.67,6,1,9,0.27
2013-5-3,61,45,26,34,27,21,82,53,29,30.67,30.22,7,1,13,0.00
2013-5-4,61,48,35,35,29,23,72,49,31,30.31,30.18,9,1,14,0.00
2013-5-5,61,47,35,37,28,21,65,48,30,30.31,30.16,12,2,15,0.00
2013-5-6,67,53,40,38,34,29,76,51,28,30.17,29.92,13,2,16,0.00
2013-5-7,72,54,41,46,39,32,84,61,30,30.01,29.86,17,2,22,0.23
2013-5-8,64,50,42,46,42,36,86,75,38,30.13,29.95,23,3,26,0.41
2013-5-9,62,50,43,47,42,37,87,73,48,30.24,30.12,18,2,26,0.15
2013-5-10,70,54,39,44,38,34,87,59,32,30.35,30.21,15,2,22,0.00
2013-5-11,70,55,40,47,40,34,81,58,34,30.41,30.20,12,1,16,0.00
2013-5-12,80,64,45,48,40,34,77,45,21,30.23,30.00,7,1,11,0.00
2013-5-13,87,69,50,49,42,36,67,41,20,30.06,29.88,10,1,13,0.00
2013-5-14,86,70,51,51,42,38,69,38,20,29.87,29.74,28,3,37,0.00
2013-5-15,80,65,52,53,44,39,77,50,24,29.86,29.72,23,2,31,0.00
2013-5-16,84,66,51,50,45,37,81,52,21,29.83,29.67,34,3,36,0.00
2013-5-17,87,69,50,50,41,25,75,41,14,29.77,29.56,20,3,23,0.00
2013-5-18,78,65,52,44,36,22,57,35,19,29.74,29.61,28,3,36,0.00
2013-5-19,72,58,44,42,35,29,71,44,22,29.79,29.66,18,2,22,0.01
2013-5-20,66,56,47,47,40,36,84,57,40,30.00,29.79,27,3,28,0.05
2013-5-21,71,57,40,42,37,32,85,51,25,30.05,29.84,12,1,15,0.00
2013-5-22,76,58,41,49,40,32,79,53,27,30.04,29.82,15,1,24,0.05
2013-5-23,69,57,48,52,46,43,87,67,47,30.07,29.90,14,1,19,0.00
2013-5-24,85,64,45,54,45,36,87,57,19,29.96,29.81,11,2,14,0.00
2013-5-25,86,70,50,55,46,30,81,48,14,29.88,29.68,7,1,14,0.00
2013-5-26,85,69,52,51,39,27,66,37,13,29.77,29.68,18,2,30,0.00
2013-5-27,83,67,49,45,36,29,63,36,15,29.74,29.57,22,2,28,0.00
2013-5-28,81,64,48,50,42,35,71,46,23,29.72,29.42,12,1,19,0.00
2013-5-29,64,54,47,50,43,35,88,67,41,29.70,29.49,20,2,31,0.42
2013-5-30,73,60,45,41,33,28,68,40,20,29.82,29.64,39,8,45,0.00
2013-5-31,75,61,46,35,28,19,57,31,15,29.97,29.78,24,5,28,0.00
2013-6-1,73,59,45,44,37,32,72,47,29,30.19,29.97,14,1,22,0.00
2013-6-2,85,63,43,46,38,31,69,44,19,30.19,29.73,8,1,9,0.00
2013-6-3,90,70,46,51,39,27,75,38,15,29.78,29.58,35,5,42,0.00
2013-6-4,72,60,51,54,45,31,80,58,36,30.16,29.78,18,2,33,0.06
2013-6-5,62,53,47,49,44,40,82,71,57,30.21,30.12,8,1,11,0.00
2013-6-6,82,62,42,52,43,38,90,56,25,30.16,29.98,6,1,13,0.00
2013-6-7,82,65,49,51,44,38,69,50,28,30.05,29.68,11,1,16,0.00
2013-6-8,79,66,52,51,45,41,70,48,31,29.94,29.63,22,2,24,0.00
2013-6-9,87,68,48,52,44,38,76,46,20,29.95,29.78,7,1,17,0.00
2013-6-10,96,75,53,55,46,39,67,40,16,29.78,29.62,14,1,17,0.00
2013-6-11,98,78,53,57,39,26,69,30,9,29.76,29.55,31,5,35,0.00
2013-6-12,90,74,52,54,41,30,66,33,16,29.95,29.77,17,2,29,0.00
2013-6-13,84,67,56,58,53,48,80,63,39,29.95,29.71,11,2,17,0.01
2013-6-14,88,72,54,56,47,39,78,46,18,29.84,29.70,23,2,27,0.00
2013-6-15,80,68,51,54,49,43,82,52,34,29.93,29.80,14,1,18,0.00
2013-6-16,80,68,53,57,49,38,87,53,26,30.01,29.88,31,3,37,0.00
2013-6-17,79,66,50,57,49,40,83,56,36,30.06,29.91,13,2,21,0.00
2013-6-18,83,68,54,57,50,45,80,55,30,30.03,29.74,12,2,23,0.00
2013-6-19,93,72,52,58,45,23,81,44,12,29.87,29.48,12,2,22,0.00
2013-6-20,88,72,50,52,41,30,73,37,15,29.76,29.58,9,1,14,0.00
2013-6-21,89,74,55,59,47,36,68,41,17,29.75,29.56,14,2,17,0.00
2013-6-22,86,69,52,57,48,42,75,50,23,29.79,29.57,12,2,25,0.00
2013-6-23,81,66,49,52,48,42,84,54,28,29.93,29.69,12,1,18,0.00
2013-6-24,86,72,54,53,44,30,78,41,18,29.81,29.57,14,2,20,0.00
2013-6-25,91,78,58,49,41,32,53,28,18,29.79,29.62,18,4,26,0.00
2013-6-26,94,75,54,54,46,40,68,39,16,29.90,29.79,11,1,15,0.00
2013-6-27,95,80,62,58,47,38,56,33,17,30.01,29.87,12,1,18,0.00
2013-6-28,92,75,63,64,54,46,81,50,29,30.06,29.88,20,3,29,0.06
2013-6-29,84,71,57,61,56,52,87,62,40,30.06,29.93,10,1,14,0.04
2013-6-30,80,70,62,60,54,52,72,60,43,30.05,29.97,15,3,19,0.01
2013-7-1,80,68,57,59,53,50,80,61,43,30.17,30.05,13,2,17,0.00
2013-7-2,83,68,54,57,51,46,83,57,31,30.15,29.99,14,1,18,0.00
2013-7-3,86,71,54,54,49,45,79,47,28,30.00,29.75,20,2,20,0.00
2013-7-4,91,75,54,58,50,44,76,45,25,29.83,29.69,17,2,21,0.00
2013-7-5,85,72,63,58,53,47,76,53,35,29.73,29.63,23,2,23,0.00
2013-7-6,91,73,60,60,53,49,80,53,25,29.78,29.68,27,4,33,0.00
2013-7-7,90,74,62,63,56,49,75,55,31,30.11,29.76,29,3,36,0.04
2013-7-8,90,73,60,62,55,48,82,56,28,29.92,29.83,36,2,46,0.04
2013-7-9,94,77,61,60,50,43,70,42,19,30.01,29.90,12,1,17,0.00
2013-7-10,90,75,58,62,55,46,74,52,34,30.04,29.79,13,2,17,0.00
2013-7-11,98,78,58,62,55,48,82,48,19,29.91,29.60,22,3,27,0.00
2013-7-12,90,73,66,61,56,50,80,57,31,29.88,29.67,31,3,40,0.07
2013-7-13,86,71,62,64,60,55,86,69,39,30.03,29.85,26,1,30,0.04
2013-7-14,84,70,58,62,58,53,87,69,43,30.10,29.94,11,2,16,0.00
2013-7-15,79,70,64,64,60,48,88,71,52,30.05,29.93,14,1,25,0.00
2013-7-16,85,70,55,57,50,46,75,52,31,30.07,29.98,13,2,22,0.00
2013-7-17,89,73,59,60,55,47,82,57,25,30.07,29.89,9,1,13,0.00
2013-7-18,91,74,63,61,55,50,78,54,29,29.98,29.84,30,5,36,0.08
2013-7-19,82,72,62,61,58,55,83,62,44,30.02,29.90,11,3,17,0.04
2013-7-20,87,70,57,62,55,49,86,61,33,29.92,29.77,16,1,38,0.00
2013-7-21,86,70,56,64,56,48,81,63,41,29.86,29.71,13,1,17,0.00
2013-7-22,90,75,55,62,54,46,82,51,26,29.84,29.72,10,1,16,0.00
2013-7-23,87,72,58,60,52,34,64,49,33,29.98,29.74,11,2,14,0.00
2013-7-24,82,71,62,64,56,50,76,60,39,30.07,29.85,23,4,33,0.00
2013-7-25,77,66,58,59,54,51,84,68,46,30.14,29.92,16,2,21,0.01
2013-7-26,86,70,55,59,52,46,80,55,27,30.18,29.97,15,2,20,0.00
2013-7-27,76,64,52,58,53,47,83,68,49,30.03,29.92,10,2,16,0.01
2013-7-28,72,63,59,61,57,54,87,79,60,30.01,29.82,10,1,14,0.03
2013-7-29,71,63,58,60,57,52,92,81,56,30.09,29.85,16,2,24,0.11
2013-7-30,88,72,58,58,54,50,82,57,29,30.15,30.00,12,1,20,0.00
2013-7-31,90,72,56,62,54,49,87,57,26,30.17,29.97,12,1,18,0.02
2013-8-1,85,71,56,64,55,47,87,60,30,30.08,29.81,12,0,18,0.00
2013-8-2,94,76,59,61,53,48,78,50,23,29.86,29.76,11,1,24,0.00
2013-8-3,91,70,61,64,58,52,87,67,33,30.11,29.82,20,2,35,0.13
2013-8-4,88,71,55,65,55,50,84,59,33,30.06,29.92,15,2,19,0.00
2013-8-5,88,70,56,58,53,47,83,57,30,29.93,29.85,23,2,32,0.00
2013-8-6,86,70,54,58,51,45,84,54,28,29.90,29.83,24,2,27,0.00
2013-8-7,74,67,60,57,53,48,82,63,46,29.97,29.88,15,2,20,0.00
2013-8-8,77,65,58,59,56,50,88,74,50,30.08,29.91,12,1,14,0.13
2013-8-9,78,65,52,57,51,47,89,65,41,30.12,30.04,26,2,27,0.00
2013-8-10,86,69,51,59,50,45,85,55,25,30.14,29.96,13,1,18,0.00
2013-8-11,83,70,58,56,50,47,76,53,30,30.05,29.96,14,1,17,0.00
2013-8-12,83,68,55,59,52,48,82,60,34,30.15,29.98,18,2,27,0.01
2013-8-13,78,66,55,55,51,48,78,58,39,30.13,30.02,21,3,28,0.00
2013-8-14,83,65,52,59,51,46,85,62,29,30.13,29.97,11,2,18,0.08
2013-8-15,87,66,49,58,50,43,82,59,30,30.09,29.99,10,1,12,0.00
2013-8-16,89,71,52,57,49,44,79,50,22,30.07,29.94,6,1,10,0.00
2013-8-17,92,73,57,61,50,36,79,48,14,30.01,29.82,6,0,10,0.00
2013-8-18,92,74,54,60,51,41,77,48,22,29.97,29.85,15,2,28,0.00
2013-8-19,94,74,54,60,50,43,75,46,19,29.95,29.81,9,1,10,0.00
2013-8-20,95,76,55,60,49,40,73,44,15,29.86,29.75,10,1,14,0.00
2013-8-21,89,75,63,59,51,43,68,46,25,29.96,29.84,19,2,25,0.00
2013-8-22,82,70,59,62,56,51,82,62,42,30.06,29.93,14,1,15,0.17
2013-8-23,86,70,59,62,56,50,87,64,37,30.04,29.79,17,2,27,0.02
2013-8-24,89,72,55,60,53,48,83,54,32,29.94,29.84,26,3,33,0.02
2013-8-25,88,73,57,59,54,49,78,53,30,29.98,29.89,23,2,33,0.00
2013-8-26,88,73,59,61,56,52,81,58,32,29.98,29.89,21,3,29,0.01
2013-8-27,92,76,59,63,56,51,81,53,31,29.97,29.81,12,2,17,0.00
2013-8-28,90,77,60,61,53,46,77,47,28,29.92,29.83,16,2,20,0.00
2013-8-29,95,76,58,58,51,46,73,44,23,29.97,29.90,21,2,23,0.00
2013-8-30,88,74,60,62,54,48,76,53,30,30.00,29.90,17,1,23,0.00
2013-8-31,91,73,61,61,53,48,74,51,25,29.96,29.84,18,3,26,0.01
2013-9-1,77,69,61,60,56,48,81,65,52,30.05,29.94,9,1,12,0.00
2013-9-2,91,71,56,63,56,49,86,61,32,30.03,29.84,7,0,11,0.00
2013-9-3,92,76,58,61,54,49,79,49,25,29.95,29.84,14,1,21,0.00
2013-9-4,89,73,61,63,55,52,76,55,31,30.02,29.91,16,2,27,0.00
2013-9-5,92,74,60,61,56,51,76,55,31,30.05,29.91,10,1,12,0.00
2013-9-6,95,76,62,59,53,47,75,49,23,29.97,29.84,22,2,27,0.00
2013-9-7,90,74,57,60,52,48,79,51,25,29.94,29.81,7,0,12,0.00
2013-9-8,88,71,54,62,52,47,78,53,29,29.88,29.70,16,1,18,0.00
2013-9-9,82,65,56,61,54,48,88,69,40,29.96,29.73,25,2,40,0.95
2013-9-10,65,60,58,59,56,54,91,87,75,30.15,29.94,5,0,9,0.26
2013-9-11,64,61,60,61,58,56,92,90,88,30.17,30.12,13,1,19,1.18
2013-9-12,63,61,59,62,59,57,95,93,92,30.24,30.14,13,1,18,1.66
2013-9-13,74,63,58,62,59,56,95,86,62,30.14,29.81,10,0,11,0.22
2013-9-14,75,64,55,62,56,52,90,76,54,29.95,29.78,14,2,20,0.00
2013-9-15,61,57,54,55,54,52,93,88,80,30.26,29.94,12,1,19,1.11
2013-9-16,71,59,54,59,54,52,95,85,62,30.25,30.00,3,0,7,0.10
2013-9-17,83,65,50,62,51,44,95,65,27,30.03,29.73,7,0,13,0.01
2013-9-18,86,67,56,57,49,43,82,54,31,29.78,29.64,24,3,35,0.04
2013-9-19,65,58,48,50,45,40,82,63,43,30.17,29.78,11,1,18,0.03
2013-9-20,72,56,45,50,44,39,87,66,35,30.20,30.03,6,0,12,0.00
2013-9-21,80,62,45,57,47,41,87,63,28,30.03,29.73,5,0,13,0.00
2013-9-22,78,62,50,56,48,42,81,64,35,29.73,29.49,28,2,38,0.01
2013-9-23,68,57,45,50,42,33,89,60,31,30.02,29.48,29,6,34,0.45
2013-9-24,76,56,41,48,40,34,82,60,28,30.15,29.85,7,1,11,0.00
2013-9-25,79,58,42,54,44,35,80,61,35,29.85,29.41,11,1,14,0.00
2013-9-26,70,55,45,48,43,40,84,66,44,29.76,29.52,8,1,14,0.00
2013-9-27,54,47,41,49,43,38,90,86,78,30.09,29.72,9,1,15,0.14
2013-9-28,68,49,34,44,36,31,90,66,33,30.26,30.08,4,0,10,0.01
2013-9-29,73,56,38,45,36,28,84,52,22,30.18,29.89,20,2,28,0.00
2013-9-30,80,63,52,54,41,30,62,45,22,29.90,29.67,21,2,33,0.00
2013-10-1,71,57,44,50,41,34,77,56,34,30.07,29.81,6,1,12,0.00
2013-10-2,75,58,42,49,42,38,87,60,26,29.97,29.84,7,1,16,0.00
2013-10-3,61,50,39,46,40,34,87,69,50,29.92,29.75,11,1,14,0.05
2013-10-4,46,39,31,43,32,23,88,76,53,30.34,29.82,22,5,29,0.26
2013-10-5,64,43,28,33,26,18,84,57,19,30.40,30.26,18,2,23,0.14
2013-10-6,69,48,31,42,33,25,81,59,29,30.39,30.27,6,0,10,0.00
2013-10-7,74,52,33,44,37,29,89,62,27,30.27,29.93,4,0,9,0.00
2013-10-8,75,56,44,48,39,32,76,55,21,29.93,29.71,8,0,15,0.00
2013-10-9,63,52,40,44,40,34,81,64,44,30.00,29.78,10,1,13,0.00
2013-10-10,58,50,44,46,42,36,85,73,55,29.98,29.55,19,2,30,0.02
2013-10-11,65,55,43,38,33,28,73,45,32,30.06,29.50,33,7,39,0.00
2013-10-12,55,46,38,40,37,33,82,71,55,30.24,30.07,9,1,11,0.00
2013-10-13,60,47,35,43,38,30,86,72,51,30.26,29.95,10,0,12,0.00
2013-10-14,52,45,40,42,36,32,85,72,54,30.27,29.87,13,1,19,0.01
2013-10-15,46,40,36,32,27,22,72,60,49,30.44,30.27,11,1,15,0.00
2013-10-16,55,39,28,34,27,22,83,64,36,30.37,30.16,6,0,9,0.00
2013-10-17,46,39,31,32,29,25,80,67,53,30.30,30.19,12,0,14,0.00
2013-10-18,46,37,29,34,28,24,88,72,46,30.36,30.24,10,1,18,0.10
2013-10-19,64,44,28,35,28,23,84,58,24,30.30,30.01,5,0,14,0.06
2013-10-20,48,40,32,36,31,28,86,72,52,30.28,29.97,13,1,19,0.08
2013-10-21,60,42,28,42,30,25,93,66,30,30.38,30.23,10,1,13,0.05
2013-10-22,65,48,33,37,32,27,84,57,31,30.33,30.18,7,1,11,0.00
2013-10-23,64,47,33,38,33,28,83,61,32,30.32,30.19,12,1,13,0.00
2013-10-24,54,42,32,38,33,27,85,72,53,30.39,30.29,9,1,10,0.00
2013-10-25,69,47,30,40,33,27,91,63,27,30.37,30.20,4,0,9,0.00
2013-10-26,63,46,32,39,33,26,84,63,34,30.44,30.22,9,1,10,0.00
2013-10-27,73,50,31,39,30,26,88,53,20,30.22,29.89,22,2,24,0.00
2013-10-28,49,37,32,32,30,27,92,76,45,30.21,29.92,15,2,22,0.05
2013-10-29,38,34,32,33,31,29,91,86,77,30.24,30.10,5,0,9,0.04
2013-10-30,43,35,31,40,31,27,91,86,76,30.14,30.00,6,0,10,0.05
2013-10-31,56,40,27,34,26,22,90,62,28,30.04,29.97,22,3,32,0.10
2013-11-1,53,41,30,34,28,23,78,59,39,30.37,30.03,11,1,15,0.00
2013-11-2,59,40,24,34,26,19,85,60,30,30.38,29.90,6,0,12,0.00
2013-11-3,70,49,33,31,26,21,73,46,16,29.90,29.60,27,5,33,0.00
2013-11-4,42,35,28,28,20,15,82,56,35,30.14,29.88,15,3,22,0.00
2013-11-5,48,34,22,24,17,6,70,51,25,30.34,30.11,12,2,18,0.00
2013-11-6,57,36,22,23,17,11,71,48,23,30.54,30.33,18,2,20,0.00
2013-11-7,55,39,26,30,23,17,73,54,32,30.57,30.15,9,1,15,0.00
2013-11-8,65,52,33,30,24,19,67,36,21,30.15,29.87,39,7,47,0.00
2013-11-9,55,45,34,34,28,21,72,52,31,30.35,30.03,11,2,16,0.00
2013-11-10,66,45,30,35,28,23,84,56,24,30.39,30.25,6,0,10,0.00
2013-11-11,61,40,32,34,27,23,77,62,30,30.82,30.29,18,2,21,0.00
2013-11-12,53,37,27,33,28,22,87,71,42,30.82,30.57,12,1,14,0.00
2013-11-13,67,46,26,32,25,19,82,50,22,30.57,30.11,7,0,11,0.00
2013-11-14,56,46,36,35,30,23,73,54,38,30.15,29.83,10,1,16,0.00
2013-11-15,67,45,31,32,26,20,80,53,18,29.83,29.56,28,6,36,0.00
2013-11-16,60,46,35,29,23,16,68,43,23,29.63,29.34,25,7,43,0.00
2013-11-17,59,42,31,27,20,15,71,44,19,30.20,29.61,40,6,52,0.00
2013-11-18,63,41,23,27,20,14,76,46,18,30.32,30.15,13,2,16,0.00
2013-11-19,56,42,28,32,24,17,69,50,32,30.15,29.84,19,2,34,0.00
2013-11-20,60,45,29,30,26,19,69,49,28,30.15,29.83,21,2,33,0.00
2013-11-21,28,17,15,20,10,6,80,74,65,30.97,30.15,11,4,14,0.00
2013-11-22,34,24,14,21,15,8,81,71,53,30.98,30.86,7,0,11,0.08
2013-11-23,38,29,24,23,19,11,82,67,50,30.94,30.58,10,1,15,0.09
2013-11-24,34,27,20,24,20,14,83,75,65,30.57,30.25,7,1,12,0.02
2013-11-25,41,34,26,26,22,16,79,63,46,30.54,30.31,11,0,11,0.01
2013-11-26,51,34,24,28,21,18,83,62,32,30.63,30.47,7,1,10,0.01
2013-11-27,61,38,20,31,23,15,85,60,26,30.46,30.22,6,0,6,0.00
2013-11-28,47,33,24,28,23,19,83,68,47,30.40,30.31,10,1,12,0.00
2013-11-29,65,42,26,33,24,18,84,54,20,30.35,30.24,17,2,21,0.00
2013-11-30,58,38,26,28,22,18,80,54,25,30.33,30.22,10,0,13,0.00
2013-12-1,56,43,28,27,23,18,71,47,28,30.32,29.96,33,4,33,0.00
2013-12-2,62,52,46,27,24,20,41,33,23,29.97,29.55,33,13,45,0.00
2013-12-3,56,34,11,28,18,5,78,54,33,29.97,29.47,30,6,38,0.00
2013-12-4,12,7,0,5,0,-6,79,73,66,30.59,29.97,9,3,11,0.00
2013-12-5,8,1,-9,0,-6,-15,82,69,56,30.72,30.57,10,3,12,0.00
2013-12-6,8,0,-5,-2,-7,-11,75,70,60,30.84,30.71,9,2,12,0.00
2013-12-7,8,2,-5,0,-5,-11,84,72,64,30.82,30.34,6,2,9,0.00
2013-12-8,17,7,1,5,0,-5,77,71,57,30.56,30.27,7,1,10,0.01
2013-12-9,26,10,-3,3,-2,-11,75,58,36,30.62,30.51,16,3,23,0.00
2013-12-10,44,28,12,19,9,-1,63,46,29,30.59,30.25,44,8,44,0.10
2013-12-11,27,18,9,15,10,3,80,71,60,30.72,30.54,10,1,14,0.01
2013-12-12,49,26,10,21,12,5,81,62,25,30.71,30.26,5,0,6,0.07
2013-12-13,49,29,15,24,16,9,79,60,26,30.42,30.12,11,0,15,0.01
2013-12-14,44,31,18,20,16,12,81,57,31,30.52,30.38,17,2,21,0.00
2013-12-15,59,39,24,24,18,14,71,45,23,30.43,30.24,21,3,28,0.00
2013-12-16,64,50,38,24,17,11,41,28,17,30.29,30.11,28,8,39,0.00
2013-12-17,58,42,27,25,18,14,63,39,25,30.42,30.16,17,2,23,0.00
2013-12-18,62,48,36,26,20,15,55,35,20,30.16,29.76,15,2,22,0.00
2013-12-19,43,33,17,25,19,11,81,57,39,30.09,29.66,16,3,21,0.00
2013-12-20,25,19,15,18,14,11,89,80,73,30.10,30.00,10,1,12,0.00
2013-12-21,33,22,12,22,16,7,85,78,54,30.24,29.92,9,1,13,0.00
2013-12-22,38,25,12,22,15,8,92,68,41,30.56,30.24,11,1,18,0.02
2013-12-23,35,23,13,22,16,8,83,74,58,30.60,30.39,7,0,11,0.01
2013-12-24,54,38,18,30,19,10,87,49,21,30.46,30.20,38,10,42,0.00
2013-12-25,44,27,15,18,11,7,78,54,24,30.66,30.44,14,1,17,0.00
2013-12-26,55,36,22,17,13,8,68,42,19,30.54,30.43,17,2,22,0.00
2013-12-27,57,34,21,25,18,13,76,56,26,30.50,30.25,3,0,6,0.00
2013-12-28,54,33,21,28,20,15,78,59,31,30.46,30.03,24,3,26,0.00
2013-12-29,36,23,7,21,12,1,82,63,40,30.50,30.21,12,1,17,0.04
2013-12-30,48,32,19,19,13,9,68,48,24,30.50,30.28,10,1,17,0.00
2013-12-31,60,44,25,25,20,14,63,41,25,30.33,30.01,33,7,37,0.00
2014-1-1,40,31,17,29,21,12,81,68,48,30.51,29.98,14,2,23,0.00
2014-1-2,40,26,16,24,17,11,84,71,43,30.59,30.32,7,1,11,0.01